Flag for U.S.A. Weather past 2 weeks in Billings, Montana, U.S.A.

Now
50 °F

Passing clouds.


Feels Like: 45 °F
Forecast: 48 / 73 °F
Wind: 15 mph from Southwest

Location: Billings Logan International Airport

Current Time: Mar 28, 2015 at 7:18:25 AM

Latest Report: Mar 28, 2015 at 6:53 AM


Visibility: 10 mi

Pressure: 29.76 "Hg

Humidity: 50%

Dew point: 32 °F

Location of BillingsLocation

Historic Weather in Billings — Graph

°F

Billings temperature yesterday

Maximum temperature yesterday: 76 °F (at 3:53 PM)
Minimum temperature yesterday: 47 °F (at 6:53 AM)
Average temperature yesterday: 61 °F

Past Weeks' High & Low Weather Summary

 TemperatureHumidityPressure
High76 °F (Mar 27, 3:53 PM)100% (Mar 17, 10:01 AM)30.53 "Hg (Mar 17, 10:01 AM)
Low30 °F (Mar 17, 4:01 AM)10% (Mar 22, 4:53 PM)29.65 "Hg (Mar 23, 4:53 PM)
Average50 °F48%30.03 "Hg
* Reported Mar 13 5:53 AM — Mar 28 5:53 AM, Billings, Weather by CustomWeather, © 2015

Note: Actual official high and low records may vary slightly from our data, if they occured in-between our weather recording intervals... More about our weather records

Advertising

Billings weather history for previous 24 hours

 ConditionsComfort  
Time TempWeatherWind HumidityBarometerVisibility
5:53 AM
Sat, Mar 28
52 °FClear.15 mph47%29.76 "Hg10 mi
4:53 AM51 °FClear.14 mph48%29.78 "Hg10 mi
3:53 AM52 °FClear.13 mph47%29.80 "Hg10 mi
2:53 AM56 °FClear.17 mph40%29.81 "Hg10 mi
1:53 AM54 °FClear.12 mph41%29.84 "Hg10 mi
12:53 AM57 °FPassing clouds.12 mph39%29.85 "Hg10 mi
11:53 PM
Fri, Mar 27
56 °FPassing clouds.6 mph39%29.88 "Hg10 mi
10:53 PM60 °FPassing clouds.8 mph32%29.89 "Hg10 mi
9:53 PM55 °FPassing clouds.6 mph35%29.92 "Hg10 mi
8:53 PM61 °FPassing clouds.12 mph30%29.90 "Hg10 mi
7:53 PM63 °FScattered clouds.10 mph26%29.90 "Hg10 mi
6:53 PM71 °FScattered clouds.14 mph18%29.89 "Hg10 mi
5:53 PM75 °FScattered clouds.17 mph14%29.88 "Hg10 mi
4:53 PM76 °FScattered clouds.21 mph13%29.88 "Hg10 mi
3:53 PM76 °FScattered clouds.18 mph15%29.90 "Hg10 mi
2:53 PM75 °FScattered clouds.17 mph15%29.90 "Hg10 mi
1:53 PM75 °FScattered clouds.21 mph15%29.93 "Hg10 mi
12:53 PM73 °FPassing clouds.20 mph19%29.95 "Hg10 mi
11:53 AM69 °FPassing clouds.18 mph25%29.98 "Hg10 mi
10:53 AM61 °FScattered clouds.14 mph41%30.01 "Hg10 mi
9:53 AM54 °FScattered clouds.20 mph51%30.04 "Hg10 mi
8:53 AM50 °FPartly sunny.14 mph59%30.07 "Hg10 mi
7:53 AM47 °FPassing clouds.13 mph64%30.08 "Hg10 mi
Weather by CustomWeather, © 2015

See weather overviewHow to use our weather pages